sat.trackr.live / text

‹ back to catalog

STARLINK-37476

NORAD 68853 · 2026-094Q

PAYLOAD ACTIVE UNKNOWN

§ Identity

Operator
Country
US
Launch date
2026-04-26
Launch site
AFWTR
Launch vehicle
Mass (kg)
RCS (m²)

Purposes: comms

External: N2YO · Heavens-Above · Gunter

§ Orbital elements

Epoch: 2026-05-25T00:54:41.014944Z

Period
92.95 min
Inclination
97.2858°
Eccentricity
0.0001752
Mean motion
15.49198430 rev/d
Perigee alt
417.9 km
Apogee alt
420.3 km
Semi-major
6,797.2 km
B*
7.7369e-4
RAAN
159.6998°
Arg perigee
311.2139°
Mean anomaly
48.8961°
Rev number
449

§ Raw data

STARLINK-374761 68853U 26094Q   26145.03797471  .00042229  00000+0  77369-3 0  99902 68853  97.2858 159.6998 0001752 311.2139  48.8961 15.49198430  4490

JSON: /api/v1/satellites/68853 · /tle

For live sub-satellite position, see the globe view (requires WebGL).

§ Visibility from observer

Set your observer location to see the next 7 days of passes ≥ 10°. The values pass through the URL so the page stays shareable.

No JS? Fill the form by hand. The geolocation button needs JavaScript.